Weather in Baranykivka

Ukraine / Luhansk Region     49°09′46″N   39°51′26″E
temp.,
°C
wind,
m/s
gust,
m/s
humid.,
%
clouds,
%
prec.,
mm/h
press.,
hPa
HPBL,
m
7 may, fri
fri700:00+14sse41070100 0.0 1011239
03:00+11s348381 0.1 101164
06:00+12w2481100 0.0 1011147
09:00+15nw5576100 0.0 1012885
12:00+14nnw567449 0.4 1015926
15:00+17nnw464514 0.4 10152055
18:00+17nne234781 0.0 10151499
21:00+13ene225971 0.0 101728
8 may, sat
sat800:00+9se377379 0.0 1017114
03:00+8se3877100 0.0 1016168
06:00+9se41178100 0.0 1016297
09:00+15sse796885 0.0 1014664
12:00+20s8953100 0.0 10121601
15:00+21ssw81049100 0.0 10101863
18:00+18sw61164100 0.0 1010782
21:00+13nw369085 0.0 1011219
9 may, sun
sun900:00+12nw6987100 0.0 1011598
03:00+9nnw71179100 0.0 1013680
06:00+7nnw5990100 3.5 1013931
09:00+7nnw6987100 8.9 1015868
12:00+9nnw81178100 1.0 10161199
15:00+10nnw71073100 1.6 10181226
18:00+10nnw5970100 0.1 10191118
21:00+8nnw4976100 0.1 1021305
10 may, mon
mon1000:00+7nnw6127296 0.0 1021615
03:00+6nnw71476100 0.0 1021561
06:00+7nnw91671100 0.1 10201135
09:00+7nnw111876100 0.6 10181110
12:00+7n111987100 1.3 1017970
15:00+7nne101892100 3.1 1017648
18:00+9nne112191100 1.6 1017702
21:00+10nne101990100 1.6 1018700
11 may, tue
tue1100:00+11nne91792100 0.1 1017661
03:00+10n101792100 0.3 1017503
06:00+9n91892100 0.3 1017491
09:00+12nne91486100 0.3 1018980
12:00+13ene71276100 0.2 10191251
15:00+12e81162100 0.3 10221513
18:00+12e696898 0.0 10231160
21:00+8ene3387100 0.0 102333